STARLINK-32886 (62807 NORAD) Tracking and Keplerian Element Data

This shows tracking and keplerian element data for the satellite.

Feedback or suggestion? Click here.




ElementValue
Catalog62807
NameSTARLINK-32886
Epoch Orbit286
Epoch Day34.83335648
Epoch Year2025
RAAN13.6411
Inclination53.1468
Eccentricity0.0001208
Argument of Perigee124.9082
Mean Anonmoly173.283
Mean Motion15.8648691
Decay Rate-0.00896892
L11 62807U 25018B 25034.83335648 -.00896892 00000+0 -38466-2 0 9995
L22 62807 53.1468 13.6411 0001208 124.9082 173.2830 15.86486910 2863



Live tracking and technical data element details for STARLINK-32886 (NORAD 62807). STARLINK-32886 can be tracked NOW for your location showing map with azimuth and elevation plus other details from your city location.







IsCatalogInMostPopularTable: catalog: 62807, numindb: 193
Update: records affected: 1



GetName: 62807 STARLINK-32886

Hit Count: updated at: Mon, 17 Nov 2025 19:45:23 GMT